Change the Weather History Date:

Monday, February 11, 2013

  Actual Average Record
Temperature  
Mean Temperature 53 °F 58 °F  
Max Temperature 59 °F 65 °F 83 °F (1988)
Min Temperature 46 °F 50 °F 34 °F (1894)
Degree Days  
Heating Degree Days 12 7  
Month to date heating degree days 96 83  
Since 1 July heating degree days 692 738  
Cooling Degree Days 0 0  
Month to date cooling degree days 0 0  
Year to date cooling degree days 0 2  
Growing Degree Days 2 (Base 50)    
Moisture  
Dew Point 40 °F    
Average Humidity 59    
Maximum Humidity 71    
Minimum Humidity 47    
Precipitation  
Precipitation 0.00 in 0.08 in 2.00 in (1854)
Month to date precipitation 0.27 0.81  
Year to date precipitation 1.48 2.79  
Since 1 July precipitation 4.65  
Snow  
Snow 0.00 in - - ()
Month to date snowfall 0.0  
Year to date snowfall 0.0  
Since 1 July snowfall 0.0  
Snow Depth 0.00 in    
Sea Level Pressure  
Sea Level Pressure 30.16 in    
Wind  
Wind Speed 4 mph (NW)    
Max Wind Speed 15 mph    
Max Gust Speed 20 mph    
Visibility 10 miles    
Events      
T = Trace of Precipitation, MM = Missing Value Source: NWS Daily Summary

Daily Weather History Graph

Daily Weather History Graph

Search for Another Location

Airport or City:

Trip Planner

Search our weather history database for the weather conditions in past years. The results will help you decide how hot, cold, wet, or windy it might be!

Date:

Astronomy

Feb. 11, 2013 Rise Set
Actual Time 6:35 AM PST 5:31 PM PST
Civil Twilight 6:09 AM PST 5:56 PM PST
Nautical Twilight 5:40 AM PST 6:25 PM PST
Astronomical Twilight 5:12 AM PST 6:54 PM PST
Moon 7:10 AM PST (2/11) 7:22 PM PST (2/11)
Length of Visible Light 11h 46m
Length of Day
10h 55m
Waxing Crescent, 3% of the Moon is Illuminated
Feb 11
Waxing Crescent
Feb 17
First Quarter
Feb 25
Full
Mar 4
Last Quarter
Mar 11
New

Hourly Weather History & Observations

Time (PST) Temp. Dew Point Humidity Pressure Visibility Wind Dir Wind Speed Gust Speed Precip Events Conditions
12:51 AM 51.1 °F 39.0 °F 63% 30.10 in 10.0 mi Calm Calm - N/A   Mostly Cloudy
1:17 AM 50.0 °F 39.2 °F 66% 30.10 in 10.0 mi Calm Calm - N/A   Mostly Cloudy
1:51 AM 50.0 °F 39.0 °F 66% 30.10 in 10.0 mi Calm Calm - N/A   Scattered Clouds
2:51 AM 48.9 °F 39.0 °F 69% 30.09 in 10.0 mi Calm Calm - N/A   Scattered Clouds
3:51 AM 48.0 °F 39.0 °F 71% 30.08 in 10.0 mi ESE 3.5 mph - N/A   Scattered Clouds
4:51 AM 46.9 °F 37.9 °F 71% 30.09 in 10.0 mi Calm Calm - N/A   Scattered Clouds
5:51 AM 46.0 °F 37.9 °F 73% 30.10 in 10.0 mi Calm Calm - N/A   Scattered Clouds
6:51 AM 46.0 °F 37.9 °F 73% 30.12 in 10.0 mi Calm Calm - N/A   Scattered Clouds
7:51 AM 48.9 °F 37.9 °F 66% 30.14 in 10.0 mi Calm Calm - N/A   Partly Cloudy
8:51 AM 51.1 °F 39.9 °F 66% 30.16 in 10.0 mi Calm Calm - N/A   Partly Cloudy
9:51 AM 54.0 °F 39.0 °F 57% 30.18 in 10.0 mi Calm Calm - N/A   Partly Cloudy
10:51 AM 57.0 °F 37.9 °F 49% 30.17 in 10.0 mi NW 5.8 mph - N/A   Scattered Clouds
11:51 AM 57.9 °F 37.9 °F 47% 30.16 in 10.0 mi West 11.5 mph - N/A   Scattered Clouds
12:51 PM 57.9 °F 39.0 °F 49% 30.14 in 10.0 mi WNW 12.7 mph - N/A   Partly Cloudy
1:51 PM 57.9 °F 39.0 °F 49% 30.13 in 10.0 mi WNW 12.7 mph - N/A   Partly Cloudy
2:51 PM 57.9 °F 37.9 °F 47% 30.13 in 10.0 mi WNW 10.4 mph - N/A   Partly Cloudy
3:51 PM 57.9 °F 42.1 °F 56% 30.14 in 10.0 mi NW 10.4 mph - N/A   Partly Cloudy
4:51 PM 57.0 °F 43.0 °F 59% 30.16 in 10.0 mi NW 8.1 mph - N/A   Scattered Clouds
5:51 PM 55.9 °F 43.0 °F 62% 30.18 in 10.0 mi NW 4.6 mph - N/A   Scattered Clouds
6:51 PM 55.9 °F 43.0 °F 62% 30.19 in 10.0 mi NNE 3.5 mph - N/A   Scattered Clouds
7:51 PM 55.0 °F 43.0 °F 64% 30.21 in 10.0 mi Calm Calm - N/A   Partly Cloudy
8:51 PM 53.1 °F 42.1 °F 66% 30.22 in 10.0 mi Calm Calm - N/A   Partly Cloudy
9:51 PM 52.0 °F 43.0 °F 71% 30.24 in 10.0 mi Calm Calm - N/A   Clear
10:51 PM 52.0 °F 43.0 °F 71% 30.26 in 10.0 mi Calm Calm - N/A   Partly Cloudy
11:51 PM 50.0 °F 42.1 °F 74% 30.27 in 10.0 mi Calm Calm - N/A   Partly Cloudy